User: anonymous   Login
Location: Bagnara
(41.0500°N, 14.7833°E)
Time: 23:25:11
(UTC+00:00)
Language:

Aureole 3 Rocket - Orbit

View from above orbital plane
View from above orbital plane
View from above satellite
View from above satellite

Ground track
Ground track

The orbit data is extracted from the following two-line orbital elements,

1 12849U 81094B   21262.39822978  .00000631  00000-0  56420-4 0  9998
2 12849  82.4917  52.5511 0899932 190.8596 167.1919 13.50926616951866
Epoch (UTC): 19 September 2021 09:33:27
Eccentricity: 0.0899932
inclination: 82.4917°
perigee height: 398 km
apogee height: 1739 km
right ascension of ascending node: 52.5511°
argument of perigee: 190.8596°
revolutions per day: 13.50926616
mean anomaly at epoch: 167.1919°
orbit number at epoch: 95186

The dashed part of the orbit path shows where the satellite is in the earth's shadow,  

DLR